Location: Leipzig
(51.3392°N, 12.3528°E)
Time: 14:52:35
(UTC+01:00)

Tiangong 1 - Visible Passes

Search period start: 18 January 2018 00:00
Search period end: 28 January 2018 00:00
Orbit: 263 x 288 km, 42.8° (Epoch: 18 January)

Date Brightness Start Highest point End Pass type
(mag) Time Alt. Az. Time Alt. Az. Time Alt. Az.
18 Jan 3.3 17:59:55 10° SSW 18:00:55 12° S 18:01:54 10° SSE visible
19 Jan 3.3 17:59:24 10° SSW 18:00:30 12° S 18:01:38 10° SSE visible
20 Jan 3.4 17:58:57 10° SSW 17:59:59 12° S 18:01:01 10° SSE visible
21 Jan 3.5 17:58:40 10° SSW 17:59:18 11° S 17:59:57 10° S visible
